Location: De Galhoek
(53.0833°N, 6.0500°E)
Time: 11:00:47
(UTC+00:00)

Daily predictions for brighter satellites

Satellite Brightness Start Highest point End
(mag) Time Altitude Azimuth Time Altitude Azimuth Time Altitude Azimuth
Cosmos 1943 3.3 20:22:22 10° S 20:27:54 57° ESE 20:33:27 10° NE
IRS-1C Rocket 4.3 20:23:21 10° S 20:28:37 76° WSW 20:33:54 10° NNW
Cosmos 1842 Rocket 3.6 20:25:06 10° S 20:29:30 66° E 20:33:53 10° NNE
ISS -1.9 20:28:11 10° W 20:30:44 20° SSW 20:33:17 10° SSE
Spot 2 Rocket 3.6 20:26:08 10° SSE 20:31:07 70° ENE 20:36:10 10° NNW
Resurs 01 Rocket 4.0 20:28:31 10° SW 20:31:58 22° W 20:35:27 10° NW
IRS-1A Rocket 4.4 20:26:45 10° SSE 20:32:21 77° WSW 20:37:54 10° NNW
ARGOS Delta rocket 3.9 20:28:49 10° SSE 20:33:48 88° ENE 20:38:32 10° NNW
NOSS 2-1 (D) 3.6 20:31:52 10° NW 20:35:23 64° NE 20:40:05 10° ESE
Cosmos 1340 3.2 20:35:32 10° N 20:38:44 37° ENE 20:41:55 10° SE
Sich 1 3.4 20:36:06 10° N 20:40:23 53° ENE 20:44:40 10° SSE
SPOT 3 Rocket 3.6 20:36:51 10° SSE 20:41:58 76° ENE 20:47:08 10° NNW
Okean O Rocket 4.0 20:38:53 10° SW 20:42:13 21° W 20:45:34 10° NW
Meteor 2-9 Rocket 4.4 20:38:17 10° N 20:44:08 71° ENE 20:49:59 10° SSE
Cosmos 2221 3.9 20:42:01 10° SW 20:46:08 42° WNW 20:50:16 10° N
Cosmos 1697 Rocket 4.3 20:42:11 10° NNW 20:46:55 27° NE 20:51:38 10° E
Meteor 1-27 Rocket 4.1 20:42:13 10° SSE 20:47:27 46° E 20:52:44 10° NNE
USA 281 3.4 20:43:50 10° SE 20:50:24 75° ENE 20:57:00 10° NNW
Ariane Rocket 3.1 20:49:00 10° SSE 20:54:05 82° WSW 20:59:12 10° NNW
Cosmos 1980 Rocket 4.3 20:50:32 10° NNW 20:54:46 21° NNE 20:58:59 10° ENE
MetOp-A 4.1 20:53:25 10° SSE 20:57:57 60° ENE 21:02:54 10° N
Terra 2.3 21:00:26 10° S 21:05:04 57° W 21:09:44 10° NNW
Cosmos 1743 Rocket 3.6 21:02:14 10° N 21:06:40 84° E 21:10:55 11° SSE
Cosmos 1340 Rocket 3.1 21:03:24 10° S 21:07:15 50° E 21:11:08 10° NNE
MOS 1 Rocket 3.7 21:02:22 10° S 21:07:32 79° WSW 21:12:57 10° NNW
USA 234 3.8 21:04:20 10° ENE 21:10:48 64° N 21:17:16 10° W
NOSS 2-1 (C) 3.5 21:08:17 10° NW 21:11:56 73° SW 21:16:11 13° SE
Lacrosse 5 rocket 2.4 21:09:00 10° WNW 21:13:10 49° N 21:17:13 10° ENE
ARIANE 5 R/B 3.7 21:12:44 11° SE 21:16:20 33° ENE 21:20:13 10° N
Cosmos 1408 Rocket 4.4 21:12:02 10° NNW 21:16:21 49° W 21:20:37 10° SSW
ERS-1 Rocket 4.0 21:13:45 10° SSW 21:18:29 41° W 21:23:15 10° NNW
Meteor 2-10 4.4 21:13:21 10° NNW 21:18:52 69° W 21:24:10 10° S
Spot 1 3.9 21:19:39 10° NNE 21:23:44 69° ESE 21:27:54 10° S
SL-8 R/B 3.9 21:21:04 10° WSW 21:25:38 48° S 21:30:14 10° ESE
Cosmos 1626 3.2 21:24:36 16° SE 21:26:12 23° E 21:28:49 10° NE
Nadezhda 4 Rocket 4.0 21:22:00 10° S 21:28:12 81° E 21:34:30 10° NNE
Cosmos 614 Rocket 4.3 21:25:42 10° S 21:30:41 49° ESE 21:35:43 10° NE
ATLAS 2AS CENTAUR R/B 4.4 21:24:21 10° WNW 21:30:58 37° NNW 21:37:20 10° NE
SL-16 R/B 4.5 21:30:49 10° W 21:35:42 28° NW 21:40:36 10° NNE
Meteor 1-19 Rocket 4.4 21:30:06 10° SSW 21:35:59 83° WNW 21:41:42 10° NNE
Cosmos 1603 3.9 21:32:10 10° SW 21:37:51 76° WNW 21:43:37 10° NNE
Cosmos 1833 Rocket 4.1 21:35:26 15° SE 21:38:16 21° E 21:42:20 10° NE
Okean 1 4.1 21:35:17 10° SSW 21:39:02 48° WNW 21:42:50 10° N
Cosmos 1975 2.7 21:36:20 10° N 21:40:19 83° E 21:43:09 18° SSE
Cosmos 1151 Rocket 3.0 21:37:10 11° S 21:41:19 87° E 21:45:40 10° NNE
Cosmos 1328 Rocket 3.9 21:45:12 18° SSE 21:48:07 47° E 21:52:15 10° NNE
Cosmos 1992 Rocket 4.1 21:44:01 10° NNW 21:49:15 75° WSW 21:53:10 18° SSE
Cosmos 1656 3.7 21:48:33 10° NNW 21:54:01 76° WSW 21:58:06 18° SSE
Cosmos 1766 3.4 21:53:22 10° N 21:57:04 56° ENE 21:59:18 22° SSE
Cosmos 1805 3.9 21:55:18 10° NNW 21:58:53 46° W 22:01:33 16° SSW
Lacrosse 4 Rocket 1.6 21:55:54 10° NW 21:59:54 57° WSW 22:02:26 21° SSE
Cosmos 1470 Rocket 3.7 21:56:51 10° N 22:01:19 64° ENE 22:04:11 21° SSE
H-2A R/B 2.8 22:02:16 20° SE 22:05:00 59° ENE 22:09:14 10° N
IRIDIUM 104 4.5 22:00:01 10° N 22:05:14 72° W 22:09:23 16° S
Cosmos 1470 3.6 22:03:47 10° N 22:07:15 36° ENE 22:09:19 20° SE
Cosmos 2026 Rocket 4.0 22:02:10 14° S 22:07:42 85° E 22:13:57 10° NNE
Cosmos 1633 Rocket 3.1 22:04:04 10° NNW 22:08:30 75° W 22:11:28 20° S
USA 59 Rocket 1.2 22:06:46 10° WNW 22:10:18 31° SW 22:13:06 18° S
Landsat 5 4.3 22:06:42 10° N 22:10:18 43° WNW 22:13:55 10° SW
Cosmos 1666 Rocket 3.9 22:06:18 10° NNW 22:10:34 59° W 22:13:32 19° S
NOSS 3-3 (A) 4.0 22:08:04 12° SSW 22:13:03 51° SE 22:19:15 10° NE
Orbus 7S? 4.3 22:13:47 23° SSE 22:14:25 24° SE 22:17:01 10° E
CZ-2C R/B 3.6 22:15:59 10° NNE 22:20:31 80° ESE 22:23:37 20° S
Cosmos 44 Rocket 3.3 22:16:50 10° NW 22:21:52 90° NE 22:25:16 20° SE
Cosmos 1140 Rocket 4.4 22:19:19 21° SSE 22:21:58 33° ESE 22:26:36 10° NE
Cosmos 220 Rocket 4.1 22:18:08 11° SSW 22:22:20 74° WNW 22:26:40 10° NNE
Cosmos 1933 Rocket 3.8 22:22:07 10° N 22:26:27 61° ENE 22:29:00 24° SSE
Cosmos 1818 3.6 22:21:22 10° SSW 22:26:46 66° SE 22:32:13 10° NE
NOSS 3-4 (A) 3.9 22:20:23 10° NW 22:27:01 81° NE 22:34:26 11° SE
NOSS 3-4 (C) 3.9 22:20:29 10° NW 22:27:08 81° NE 22:34:35 11° SE
S3M 4.5 22:20:55 10° N 22:27:13 55° ENE 22:31:50 19° SE
ALOS 2 3.0 22:26:21 21° SE 22:29:06 56° ENE 22:33:24 10° N
BREEZE-M DEB (TANK) 4.2 22:31:06 24° SSE 22:31:30 25° SE 22:36:33 10° E
Cosmos 1697 Rocket 2.7 22:25:56 10° NNW 22:31:36 88° WSW 22:35:28 21° SSE
USA 281 4.5 22:30:22 12° SSW 22:35:27 30° WSW 22:41:08 10° NW
Cosmos 1553 Rocket 4.0 22:29:36 10° NNW 22:35:43 81° W 22:39:57 21° S
GEOS 3 Rocket 3.7 22:30:33 10° NE 22:35:47 81° NW 22:40:55 10° SW
Cosmos 1674 2.5 22:37:26 31° SSE 22:38:54 62° E 22:42:22 10° NNE
Meteor 2-4 Rocket 4.3 22:33:18 11° SSW 22:38:58 60° WNW 22:44:53 10° N
Cosmos 1980 Rocket 2.6 22:34:17 10° NNW 22:39:57 61° NE 22:44:37 15° SE
Spot 2 4.4 22:37:38 24° SSE 22:40:34 82° ENE 22:45:34 10° NNW
Cosmos 1607 4.5 22:37:14 20° S 22:41:13 43° ESE 22:47:17 10° NE
MINOTAUR 4 R/B 4.2 22:40:07 10° N 22:43:02 50° WNW 22:44:36 23° SW
NOSS 3-3 (C) 3.8 22:38:07 10° SSW 22:43:40 71° SE 22:50:14 10° NE
Cosmos 1066 Rocket 4.3 22:41:55 18° SSW 22:46:22 83° WNW 22:52:18 10° NNE
Cosmos 2285 Rocket 4.4 22:44:29 22° SSE 22:48:19 48° ESE 22:54:23 10° NE
Cosmos 1763 Rocket 4.0 22:46:33 10° NNW 22:51:49 57° ENE 22:55:49 17° SE
Lacrosse 5 rocket 1.7 22:47:43 10° WNW 22:51:56 67° NNE 22:56:00 10° ESE
Cosmos 407 Rocket 4.2 22:49:43 23° SSE 22:52:22 39° ESE 22:57:14 10° NE
ARIANE 5 R/B 3.7 22:50:12 19° SSW 22:52:44 34° W 22:56:41 10° NNW
Cosmos 1908 3.0 22:49:13 10° N 22:52:48 76° ENE 22:54:20 32° SSE
USA 234 3.4 22:47:03 10° ESE 22:53:37 77° NNE 23:00:10 10° WNW
Cosmos 2369 4.1 22:52:19 10° NNW 22:58:01 64° NE 23:02:44 15° SE
Cosmos 1269 Rocket 4.3 22:54:32 13° SW 22:59:17 68° WNW 23:04:35 10° NNE
Cosmos 1626 3.6 22:57:25 13° SW 22:59:39 26° WNW 23:02:28 10° N
Cosmos 540 Rocket 4.1 22:56:24 10° NNW 23:01:27 51° ENE 23:05:35 15° SE
Cosmos 2251 Rocket 4.0 23:01:47 24° SSE 23:04:29 44° ESE 23:09:30 10° NE
Cosmos 1758 4.1 23:03:15 10° N 23:06:54 40° ENE 23:08:57 22° SE
SL-8 R/B 4.1 23:03:10 10° W 23:07:37 40° SSW 23:10:29 20° SE
Meteor 1-13 Rocket 4.4 23:04:59 23° S 23:08:42 67° E 23:14:32 10° NNE
Cosmos 1707 2.5 23:09:20 31° SSW 23:10:58 84° W 23:14:38 10° N
BREEZE-M DEB (TANK) 3.7 23:09:03 10° WSW 23:14:08 14° SE 23:15:21 10° ESE
Cosmos 1441 Rocket 2.9 23:09:27 10° NNW 23:13:04 89° WSW 23:14:30 34° SSE
SL-16 R/B 3.6 23:08:56 10° NNW 23:14:10 36° NE 23:19:23 10° ESE
Cosmos 2266 Rocket 4.0 23:12:28 23° S 23:16:32 82° E 23:22:51 10° NNE
OPS 6432 4.1 23:13:21 10° NW 23:16:33 81° NE 23:18:00 29° SE
Spot 4 4.5 23:13:59 23° SSW 23:16:34 44° W 23:21:09 10° NNW
Cosmos 1842 3.6 23:15:46 25° SW 23:17:40 54° WNW 23:21:19 10° N
Cosmos 1655 Rocket 4.2 23:15:56 23° S 23:20:01 65° E 23:26:21 10° NNE
Cosmos 883 Rocket 4.5 23:14:10 10° N 23:20:26 90° WSW 23:24:33 23° S
Cosmos 1833 Rocket 2.7 23:17:04 17° SW 23:21:31 83° WNW 23:27:11 10° NNE
ATLAS 2AS CENTAUR R/B 4.2 23:16:58 10° NW 23:23:32 39° NNE 23:29:50 10° E
Cosmos 2082 Rocket 2.9 23:23:06 23° SSE 23:26:02 40° ESE 23:31:20 10° NE
Cosmos 1300 2.8 23:25:45 10° N 23:29:18 60° ENE 23:30:52 30° SE
Meteor 1-22 Rocket 4.1 23:25:23 10° NNW 23:30:42 75° W 23:33:54 25° S
Cosmos 2360 Rocket 4.1 23:26:56 10° NNW 23:31:52 29° NE 23:36:47 10° E
Cosmos 2228 Rocket 3.5 23:31:44 26° SSE 23:33:59 52° E 23:38:23 10° NNE
Meteor 1-15 Rocket 4.3 23:29:17 10° NNW 23:34:55 71° W 23:38:16 25° S
H-2A R/B 2.2 23:31:45 10° NNE 23:36:11 64° ESE 23:38:23 28° S
SL-08 ROCKET BODY 4.5 23:33:08 22° SSW 23:37:17 81° W 23:43:31 10° N
Cosmos 1733 Rocket 3.1 23:33:14 10° N 23:37:35 72° ENE 23:39:58 26° SSE
Cosmos 1356 Rocket 4.4 23:38:18 23° SE 23:40:11 36° E 23:43:59 10° NNE
H-2A R/B 4.4 23:38:15 14° SW 23:40:19 19° W 23:43:25 10° NW
Cosmos 1869 Rocket 4.2 23:36:14 10° NNW 23:40:23 45° W 23:42:30 25° SSW
Cosmos 1470 4.4 23:39:32 10° NW 23:42:26 22° W 23:43:59 17° WSW
Helios 1A Rocket 4.3 23:39:28 12° ESE 23:42:30 30° ENE 23:45:53 10° N
GP-B 3.2 23:50:06 10° N 23:54:30 69° W 23:56:49 27° SSW
